This demonstration page uses our WeatherBlox Daily Observations layout. Learn more.

Left ArrowRight Arrow

44.89941, -97.11507

Hourly Observations for November 6, 2019

Temp ( °F °C ) Dew Point ( °F °C ) Humidity (%) Winds ( mph kmh ) Pressure ( in mb ) Visibility ( mi km ) Precip ( " mm )
12:53 am 00:53 Cloudy 25 -3.9 22 -5.6 88 88 NNE 5 7 30.28 1025 9 14 0.00 0.00
1:53 am 01:53 Cloudy 25 -3.9 23 -5 92 92 N 6 9 30.28 1026 10 16 0.00 0.00
2:53 am 02:53 Cloudy 26 -3.3 23 -5 88 88 NNE 5 7 30.29 1026 10 16 0.00 0.00
3:53 am 03:53 Cloudy 25 -3.9 22 -5.6 88 88 NNE 7 11 30.29 1026 10 16 0.00 0.00
4:53 am 04:53 Cloudy 25 -3.9 22 -5.6 88 88 N 5 7 30.33 1027 10 16 0.00 0.00
5:53 am 05:53 Cloudy 23 -5 20 -6.7 88 88 NNE 6 9 30.33 1027 10 16 0.00 0.00
6:53 am 06:53 Mostly Cloudy 25 -3.9 20 -6.7 81 81 Calm 30.37 1028 10 16 0.00 0.00
7:46 am 07:46 Cloudy with Light Snow 25 -3.9 20 -6.7 81 81 N 6 9 30.44 1031 8 13 0.00 0.00
7:53 am 07:53 Cloudy with Light Snow 25 -3.9 20 -6.7 81 81 N 6 9 30.41 1030 5 8 0.00 0.00
8:09 am 08:09 Cloudy with Light Snow 25 -3.9 21 -6.1 85 85 N 7 11 30.45 1031 3 4 0.00 0.00
8:48 am 08:48 Cloudy with Light Snow 25 -4 21 -6 86 86 NNE 17 28 30.48 1032 2 3 0.00 0.00
8:53 am 08:53 Windy with Snow Likely 24 -4.4 20 -6.7 84 84 NNE 20 31 30.45 1031 2 3 0.00 0.00
9:03 am 09:03 Cloudy with Haze 24 -4.4 19 -7.2 81 81 NNE 17 28 30.48 1032 4 6 0.00 0.00
9:49 am 09:49 Cloudy with Light Snow 21 -6 18 -8 86 86 NNE 17 28 30.53 1034 4 6 0.00 0.00
9:53 am 09:53 Cloudy with Light Snow 22 -5.6 18 -7.8 85 85 NNE 17 28 30.49 1032 4 6 0.00 0.00
10:53 am 10:53 Windy with Snow Likely 22 -5.6 17 -8.3 82 82 N 20 31 30.51 1033 6 10 0.00 0.00
11:23 am 11:23 Cloudy 22 -5.6 16 -8.9 78 78 N 18 30 30.56 1035 10 16 0.00 0.00
11:53 am 11:53 Cloudy 21 -6.1 16 -8.9 81 81 N 20 31 30.53 1034 10 16 0.00 0.00
12:07 pm 12:07 Cloudy 21 -6.1 14 -10 74 74 N 21 33 30.57 1035 10 16 0.00 0.00
12:53 pm 12:53 Cloudy 20 -6.7 11 -11.7 68 68 N 16 26 30.54 1034 10 16 0.00 0.00
1:53 pm 13:53 Mostly Sunny 20 -6.7 9 -12.8 62 62 N 18 30 30.55 1034 10 16 0.00 0.00
2:53 pm 14:53 Sunny 20 -6.7 7 -13.9 57 57 N 18 30 30.56 1035 10 16 0.00 0.00
3:53 pm 15:53 Sunny 20 -6.7 6 -14.4 55 55 N 16 26 30.57 1035 10 16 0.00 0.00
4:53 pm 16:53 Sunny 19 -7.2 6 -14.4 57 57 N 12 19 30.59 1036 10 16 0.00 0.00
5:53 pm 17:53 Clear 17 -8.3 8 -13.3 68 68 NNW 9 15 30.62 1037 10 16 0.00 0.00
6:53 pm 18:53 Partly Cloudy 15 -9.4 7 -13.9 70 70 N 8 13 30.63 1037 10 16 0.00 0.00
7:53 pm 19:53 Clear 11 -11.7 5 -15 77 77 N 9 15 30.65 1038 10 16 0.00 0.00
8:53 pm 20:53 Clear 10 -12.2 5 -15 80 80 NNW 6 9 30.65 1038 10 16 0.00 0.00
9:53 pm 21:53 Clear 13 -10.6 6 -14.4 74 74 Calm 30.66 1038 10 16 0.00 0.00
10:53 pm 22:53 Clear 11 -11.7 5 -15 77 77 Calm 30.66 1038 10 16 0.00 0.00
11:53 pm 23:53 Clear 10 -12.2 6 -14.4 84 84 Calm 30.66 1038 10 16 0.00 0.00

Powered by AerisWeather